Home > Weather > Bramsche > Past weeks

Flag for Germany Past Weather in Bramsche, Lower Saxony, Germany — Yesterday and Last 2 Weeks

Now
70 °F

Scattered showers. Broken clouds.


Feels Like: 70 °F
Forecast: 59 / 67 °F
Wind: 3 mph from East

Location: Muenster / Osnabrueck

Current Time: May 28, 2016 at 8:16:54 PM

Latest Report: May 28, 2016 at 7:50 PM


Visibility: N/A

Pressure: 29.86 "Hg

Humidity: 60%

Dew Point: 55 °F

Location of BramscheLocation

Past Weather in Bramsche — Graph

°F

Bramsche Temperature Yesterday

Maximum temperature yesterday: 70 °F (at 6:20 PM)
Minimum temperature yesterday: 52 °F (at 4:20 AM)
Average temperature yesterday: 60 °F

High & Low Weather Summary for the Past Weeks

 TemperatureHumidityPressure
High75 °F (May 21, 3:20 PM)100% (May 19, 6:20 AM)30.09 "Hg (May 19, 6:20 AM)
Low36 °F (May 16, 3:50 AM)31% (May 13, 6:20 PM)29.62 "Hg (May 13, 6:20 PM)
Average56 °F73%29.94 "Hg
* Reported May 13 6:20 PM — May 28 6:20 PM, Bramsche, Weather by CustomWeather, © 2016

Note: Actual official high and low records may vary slightly from our data, if they occured in-between our weather recording intervals... More about our weather records

Advertising

Bramsche Weather History for the Previous 24 Hours

Scroll right to see more
 ConditionsComfort  
Time TempWeatherWind HumidityBarometerVisibility
6:20 PM
Sat, May 28
72 °FSprinkles. Broken clouds.6 mph65%29.86 "HgN/A
5:50 PM70 °FScattered clouds.9 mph64%29.86 "HgN/A
5:20 PM68 °FScattered showers. Partly sunny.8 mph73%29.86 "HgN/A
4:50 PM70 °FScattered showers. Broken clouds.13 mph60%29.89 "HgN/A
4:20 PM70 °FSprinkles. Partly sunny.10 mph64%29.89 "HgN/A
3:50 PM72 °FScattered showers. Scattered clouds.9 mph57%29.89 "HgN/A
3:20 PM72 °FScattered clouds.13 mph53%29.89 "HgN/A
2:50 PM73 °FScattered clouds.5 mph53%29.89 "HgN/A
2:20 PM72 °FScattered clouds.5 mph57%29.89 "HgN/A
1:50 PM73 °FScattered clouds.5 mph53%29.92 "HgN/A
1:20 PM72 °FScattered clouds.6 mph57%29.92 "HgN/A
12:50 PM72 °FScattered clouds.7 mph53%29.92 "HgN/A
12:20 PM73 °FPassing clouds.7 mph53%29.92 "HgN/A
11:50 AM72 °FPassing clouds.6 mph57%29.92 "HgN/A
11:20 AM72 °FScattered clouds.6 mph57%29.92 "HgN/A
10:50 AM68 °FScattered clouds.8 mph64%29.95 "HgN/A
10:20 AM68 °FPassing clouds.5 mph60%29.95 "HgN/A
9:50 AM68 °FPassing clouds.3 mph60%29.95 "HgN/A
9:20 AM66 °FPassing clouds.5 mph68%29.95 "HgN/A
8:50 AM64 °FPassing clouds.5 mph68%29.95 "HgN/A
8:20 AM64 °FClear.5 mph73%29.95 "Hg6 mi
7:50 AM61 °FClear.2 mph83%29.95 "Hg4 mi
7:20 AM61 °FClear.2 mph83%29.95 "Hg4 mi
6:50 AM59 °FClear.3 mph88%29.95 "Hg4 mi
6:20 AM57 °FClear.3 mph94%29.95 "Hg4 mi
5:50 AM57 °FClear.2 mph88%29.95 "Hg4 mi
5:20 AM57 °FClear.3 mph88%29.98 "Hg4 mi
4:50 AM57 °FClear.1 mph88%29.98 "Hg4 mi
4:20 AM57 °FClear.3 mph88%29.95 "Hg5 mi
3:50 AM57 °FClear.3 mph88%29.95 "Hg5 mi
3:20 AM57 °FCool.2 mph88%29.95 "HgN/A
2:50 AM57 °FPassing clouds.3 mph88%29.95 "HgN/A
2:20 AM57 °FClear.3 mph88%29.98 "Hg10 mi
1:50 AM57 °FPassing clouds.3 mph88%29.98 "HgN/A
1:20 AM57 °FClear.2 mph88%29.98 "Hg10 mi
12:50 AM57 °FClear.1 mph88%29.98 "Hg10 mi
12:20 AM57 °FClear.2 mph88%29.98 "Hg10 mi
11:50 PM
Fri, May 27
57 °FClear.2 mph88%29.98 "Hg10 mi
11:20 PM59 °FClear.2 mph82%30.01 "Hg10 mi
10:50 PM59 °FClear.2 mph82%30.01 "Hg10 mi
10:20 PM61 °FSunny.2 mph77%30.01 "Hg10 mi
9:50 PM63 °FScattered clouds.3 mph73%30.01 "HgN/A
9:20 PM64 °FPartly sunny.3 mph68%29.98 "HgN/A
8:50 PM66 °FPartly sunny.3 mph64%29.98 "HgN/A
8:20 PM66 °FPartly sunny.6 mph64%29.98 "HgN/A
Weather by CustomWeather, © 2016

See weather overviewHow to use our weather pages